Year,Month,Day,Hour,Minute,Value (Times are PST for temperature in C)
2015,02,18,00,00,2.10
2015,02,18,00,01,2.10
2015,02,18,00,02,2.10
2015,02,18,00,03,2.10
2015,02,18,00,04,2.00
2015,02,18,00,05,2.00
2015,02,18,00,06,2.00
2015,02,18,00,07,2.00
2015,02,18,00,08,2.00
2015,02,18,00,09,2.00
2015,02,18,00,10,2.00
2015,02,18,00,11,2.00
2015,02,18,00,12,1.90
2015,02,18,00,13,1.90
2015,02,18,00,14,1.90
2015,02,18,00,15,1.80
2015,02,18,00,16,1.80
2015,02,18,00,17,1.80
2015,02,18,00,18,1.70
2015,02,18,00,19,1.70
2015,02,18,00,20,1.70
2015,02,18,00,21,1.70
2015,02,18,00,22,1.70
2015,02,18,00,23,1.70
2015,02,18,00,24,1.70
2015,02,18,00,25,1.60
2015,02,18,00,26,1.60
2015,02,18,00,27,1.70
2015,02,18,00,28,1.70
2015,02,18,00,29,1.70
2015,02,18,00,30,1.70
2015,02,18,00,31,1.70
2015,02,18,00,32,1.70
2015,02,18,00,33,1.70
2015,02,18,00,34,1.70
2015,02,18,00,35,1.70
2015,02,18,00,36,1.70
2015,02,18,00,37,1.70
2015,02,18,00,38,1.70
2015,02,18,00,39,1.70
2015,02,18,00,40,1.70
2015,02,18,00,41,1.70
2015,02,18,00,42,1.70
2015,02,18,00,43,1.70
2015,02,18,00,44,1.70
2015,02,18,00,45,1.70
2015,02,18,00,46,1.70
2015,02,18,00,47,1.70
2015,02,18,00,48,1.70
2015,02,18,00,49,1.70
2015,02,18,00,50,1.70
2015,02,18,00,51,1.70
2015,02,18,00,52,1.70
2015,02,18,00,53,1.70
2015,02,18,00,54,1.70
2015,02,18,00,55,1.80
2015,02,18,00,56,1.80
2015,02,18,00,57,1.80
2015,02,18,00,58,1.80
2015,02,18,00,59,1.70
2015,02,18,01,00,1.70
2015,02,18,01,01,1.70
2015,02,18,01,02,1.70
2015,02,18,01,03,1.70
2015,02,18,01,04,1.70
2015,02,18,01,05,1.70
2015,02,18,01,06,1.70
2015,02,18,01,07,1.70
2015,02,18,01,08,1.70
2015,02,18,01,09,1.60
2015,02,18,01,10,1.60
2015,02,18,01,11,1.60
2015,02,18,01,12,1.60
2015,02,18,01,13,1.60
2015,02,18,01,14,1.60
2015,02,18,01,15,1.60
2015,02,18,01,16,1.50
2015,02,18,01,17,1.50
2015,02,18,01,18,1.50
2015,02,18,01,19,1.50
2015,02,18,01,20,1.50
2015,02,18,01,21,1.50
2015,02,18,01,22,1.40
2015,02,18,01,23,1.40
2015,02,18,01,24,1.40
2015,02,18,01,25,1.40
2015,02,18,01,26,1.40
2015,02,18,01,27,1.40
2015,02,18,01,28,1.40
2015,02,18,01,29,1.40
2015,02,18,01,30,1.40
2015,02,18,01,31,1.40
2015,02,18,01,32,1.40
2015,02,18,01,33,1.40
2015,02,18,01,34,1.40
2015,02,18,01,35,1.40
2015,02,18,01,36,1.40
2015,02,18,01,37,1.40
2015,02,18,01,38,1.40
2015,02,18,01,39,1.40
2015,02,18,01,40,1.40
2015,02,18,01,41,1.40
2015,02,18,01,42,1.40
2015,02,18,01,43,1.40
2015,02,18,01,44,1.40
2015,02,18,01,45,1.50
2015,02,18,01,46,1.50
2015,02,18,01,47,1.50
2015,02,18,01,48,1.50
2015,02,18,01,49,1.50
2015,02,18,01,50,1.50
2015,02,18,01,51,1.50
2015,02,18,01,52,1.60
2015,02,18,01,53,1.60
2015,02,18,01,54,1.60
2015,02,18,01,55,1.50
2015,02,18,01,56,1.50
2015,02,18,01,57,1.50
2015,02,18,01,58,1.40
2015,02,18,01,59,1.40
2015,02,18,02,00,1.40
2015,02,18,02,01,1.40
2015,02,18,02,02,1.30
2015,02,18,02,03,1.30
2015,02,18,02,04,1.30
2015,02,18,02,05,1.30
2015,02,18,02,06,1.30
2015,02,18,02,07,1.30
2015,02,18,02,08,1.30
2015,02,18,02,09,1.30
2015,02,18,02,10,1.30
2015,02,18,02,11,1.30
2015,02,18,02,12,1.30
2015,02,18,02,13,1.30
2015,02,18,02,14,1.30
2015,02,18,02,15,1.30
2015,02,18,02,16,1.30
2015,02,18,02,17,1.40
2015,02,18,02,18,1.40
2015,02,18,02,19,1.40
2015,02,18,02,20,1.40
2015,02,18,02,21,1.40
2015,02,18,02,22,1.40
2015,02,18,02,23,1.40
2015,02,18,02,24,1.40
2015,02,18,02,25,1.50
2015,02,18,02,26,1.50
2015,02,18,02,27,1.50
2015,02,18,02,28,1.50
2015,02,18,02,29,1.50
2015,02,18,02,30,1.50
2015,02,18,02,31,1.50
2015,02,18,02,32,1.50
2015,02,18,02,33,1.50
2015,02,18,02,34,1.50
2015,02,18,02,35,1.50
2015,02,18,02,36,1.50
2015,02,18,02,37,1.50
2015,02,18,02,38,1.50
2015,02,18,02,39,1.50
2015,02,18,02,40,1.50
2015,02,18,02,41,1.50
2015,02,18,02,42,1.50
2015,02,18,02,43,1.50
2015,02,18,02,44,1.50
2015,02,18,02,45,1.50
2015,02,18,02,46,1.40
2015,02,18,02,47,1.40
2015,02,18,02,48,1.40
2015,02,18,02,49,1.40
2015,02,18,02,50,1.40
2015,02,18,02,51,1.40
2015,02,18,02,52,1.40
2015,02,18,02,53,1.40
2015,02,18,02,54,1.40
2015,02,18,02,55,1.40
2015,02,18,02,56,1.40
2015,02,18,02,57,1.40
2015,02,18,02,58,1.40
2015,02,18,02,59,1.40
2015,02,18,03,00,1.40
2015,02,18,03,01,1.40
2015,02,18,03,02,1.40
2015,02,18,03,03,1.40
2015,02,18,03,04,1.40
2015,02,18,03,05,1.50
2015,02,18,03,06,1.50
2015,02,18,03,07,1.50
2015,02,18,03,08,1.50
2015,02,18,03,09,1.40
2015,02,18,03,10,1.40
2015,02,18,03,11,1.40
2015,02,18,03,12,1.40
2015,02,18,03,13,1.40
2015,02,18,03,14,1.30
2015,02,18,03,15,1.30
2015,02,18,03,16,1.30
2015,02,18,03,17,1.30
2015,02,18,03,18,1.30
2015,02,18,03,19,1.30
2015,02,18,03,20,1.30
2015,02,18,03,21,1.30
2015,02,18,03,22,1.30
2015,02,18,03,23,1.30
2015,02,18,03,24,1.30
2015,02,18,03,25,1.30
2015,02,18,03,26,1.30
2015,02,18,03,27,1.30
2015,02,18,03,28,1.30
2015,02,18,03,29,1.30
2015,02,18,03,30,1.30
2015,02,18,03,31,1.30
2015,02,18,03,32,1.30
2015,02,18,03,33,1.30
2015,02,18,03,34,1.40
2015,02,18,03,35,1.40
2015,02,18,03,36,1.40
2015,02,18,03,37,1.40
2015,02,18,03,38,1.40
2015,02,18,03,39,1.40
2015,02,18,03,40,1.50
2015,02,18,03,41,1.50
2015,02,18,03,42,1.50
2015,02,18,03,43,1.60
2015,02,18,03,44,1.60
2015,02,18,03,45,1.60
2015,02,18,03,46,1.60
2015,02,18,03,47,1.70
2015,02,18,03,48,1.70
2015,02,18,03,49,1.70
2015,02,18,03,50,1.70
2015,02,18,03,51,1.60
2015,02,18,03,52,1.60
2015,02,18,03,53,1.50
2015,02,18,03,54,1.50
2015,02,18,03,55,1.40
2015,02,18,03,56,1.40
2015,02,18,03,57,1.40
2015,02,18,03,58,1.40
2015,02,18,03,59,1.30
2015,02,18,04,00,1.30
2015,02,18,04,01,1.30
2015,02,18,04,02,1.30
2015,02,18,04,03,1.30
2015,02,18,04,04,1.30
2015,02,18,04,05,1.30
2015,02,18,04,06,1.30
2015,02,18,04,07,1.30
2015,02,18,04,08,1.30
2015,02,18,04,09,1.30
2015,02,18,04,10,1.30
2015,02,18,04,11,1.30
2015,02,18,04,12,1.30
2015,02,18,04,13,1.30
2015,02,18,04,14,1.40
2015,02,18,04,15,1.40
2015,02,18,04,16,1.40
2015,02,18,04,17,1.40
2015,02,18,04,18,1.40
2015,02,18,04,19,1.40
2015,02,18,04,20,1.40
2015,02,18,04,21,1.40
2015,02,18,04,22,1.40
2015,02,18,04,23,1.40
2015,02,18,04,24,1.40
2015,02,18,04,25,1.40
2015,02,18,04,26,1.40
2015,02,18,04,27,1.40
2015,02,18,04,28,1.40
2015,02,18,04,29,1.40
2015,02,18,04,30,1.40
2015,02,18,04,31,1.40
2015,02,18,04,32,1.40
2015,02,18,04,33,1.30
2015,02,18,04,34,1.30
2015,02,18,04,35,1.30
2015,02,18,04,36,1.40
2015,02,18,04,37,1.40
2015,02,18,04,38,1.40
2015,02,18,04,39,1.40
2015,02,18,04,40,1.40
2015,02,18,04,41,1.40
2015,02,18,04,42,1.40
2015,02,18,04,43,1.40
2015,02,18,04,44,1.40
2015,02,18,04,45,1.40
2015,02,18,04,46,1.40
2015,02,18,04,47,1.50
2015,02,18,04,48,1.50
2015,02,18,04,49,1.50
2015,02,18,04,50,1.50
2015,02,18,04,51,1.60
2015,02,18,04,52,1.60
2015,02,18,04,53,1.60
2015,02,18,04,54,1.60
2015,02,18,04,55,1.60
2015,02,18,04,56,1.50
2015,02,18,04,57,1.50
2015,02,18,04,58,1.40
2015,02,18,04,59,1.40
2015,02,18,05,00,1.40
2015,02,18,05,01,1.30
2015,02,18,05,02,1.30
2015,02,18,05,03,1.20
2015,02,18,05,04,1.20
2015,02,18,05,05,1.10
2015,02,18,05,06,1.10
2015,02,18,05,07,1.10
2015,02,18,05,08,1.10
2015,02,18,05,09,1.10
2015,02,18,05,10,1.10
2015,02,18,05,11,1.10
2015,02,18,05,12,1.20
2015,02,18,05,13,1.20
2015,02,18,05,14,1.20
2015,02,18,05,15,1.20
2015,02,18,05,16,1.30
2015,02,18,05,17,1.30
2015,02,18,05,18,1.30
2015,02,18,05,19,1.30
2015,02,18,05,20,1.30
2015,02,18,05,21,1.30
2015,02,18,05,22,1.30
2015,02,18,05,23,1.40
2015,02,18,05,24,1.40
2015,02,18,05,25,1.40
2015,02,18,05,26,1.40
2015,02,18,05,27,1.40
2015,02,18,05,28,1.40
2015,02,18,05,29,1.50
2015,02,18,05,30,1.50
2015,02,18,05,31,1.50
2015,02,18,05,32,1.50
2015,02,18,05,33,1.60
2015,02,18,05,34,1.60
2015,02,18,05,35,1.60
2015,02,18,05,36,1.60
2015,02,18,05,37,1.60
2015,02,18,05,38,1.70
2015,02,18,05,39,1.70
2015,02,18,05,40,1.70
2015,02,18,05,41,1.70
2015,02,18,05,42,1.70
2015,02,18,05,43,1.70
2015,02,18,05,44,1.70
2015,02,18,05,45,1.70
2015,02,18,05,46,1.70
2015,02,18,05,47,1.70
2015,02,18,05,48,1.70
2015,02,18,05,49,1.70
2015,02,18,05,50,1.70
2015,02,18,05,51,1.70
2015,02,18,05,52,1.60
2015,02,18,05,53,1.60
2015,02,18,05,54,1.60
2015,02,18,05,55,1.50
2015,02,18,05,56,1.40
2015,02,18,05,57,1.40
2015,02,18,05,58,1.30
2015,02,18,05,59,1.30
2015,02,18,06,00,1.30
2015,02,18,06,01,1.30
2015,02,18,06,02,1.30
2015,02,18,06,03,1.30
2015,02,18,06,04,1.30
2015,02,18,06,05,1.30
2015,02,18,06,06,1.40
2015,02,18,06,07,1.40
2015,02,18,06,08,1.40
2015,02,18,06,09,1.40
2015,02,18,06,10,1.50
2015,02,18,06,11,1.50
2015,02,18,06,12,1.60
2015,02,18,06,13,1.60
2015,02,18,06,14,1.60
2015,02,18,06,15,1.70
2015,02,18,06,16,1.70
2015,02,18,06,17,1.70
2015,02,18,06,18,1.70
2015,02,18,06,19,1.70
2015,02,18,06,20,1.70
2015,02,18,06,21,1.70
2015,02,18,06,22,1.70
2015,02,18,06,23,1.70
2015,02,18,06,24,1.70
2015,02,18,06,25,1.70
2015,02,18,06,26,1.70
2015,02,18,06,27,1.70
2015,02,18,06,28,1.70
2015,02,18,06,29,1.80
2015,02,18,06,30,1.80
2015,02,18,06,31,1.80
2015,02,18,06,32,1.80
2015,02,18,06,33,1.80
2015,02,18,06,34,1.80
2015,02,18,06,35,1.80
2015,02,18,06,36,1.80
2015,02,18,06,37,1.80
2015,02,18,06,38,1.80
2015,02,18,06,39,1.80
2015,02,18,06,40,1.80
2015,02,18,06,41,1.70
2015,02,18,06,42,1.70
2015,02,18,06,43,1.70
2015,02,18,06,44,1.60
2015,02,18,06,45,1.60
2015,02,18,06,46,1.60
2015,02,18,06,47,1.60
2015,02,18,06,48,1.60
2015,02,18,06,49,1.60
2015,02,18,06,50,1.60
2015,02,18,06,51,1.60
2015,02,18,06,52,1.60
2015,02,18,06,53,1.60
2015,02,18,06,54,1.60
2015,02,18,06,55,1.60
2015,02,18,06,56,1.70
2015,02,18,06,57,1.70
2015,02,18,06,58,1.70
2015,02,18,06,59,1.70
2015,02,18,07,00,1.70
2015,02,18,07,01,1.70
2015,02,18,07,02,1.70
2015,02,18,07,03,1.70
2015,02,18,07,04,1.70
2015,02,18,07,05,1.70
2015,02,18,07,06,1.70
2015,02,18,07,07,1.70
2015,02,18,07,08,1.70
2015,02,18,07,09,1.70
2015,02,18,07,10,1.70
2015,02,18,07,11,1.70
2015,02,18,07,12,1.70
2015,02,18,07,13,1.70
2015,02,18,07,14,1.70
2015,02,18,07,15,1.70
2015,02,18,07,16,1.70
2015,02,18,07,17,1.70
2015,02,18,07,18,1.70
2015,02,18,07,19,1.70
2015,02,18,07,20,1.70
2015,02,18,07,21,1.70
2015,02,18,07,22,1.70
2015,02,18,07,23,1.70
2015,02,18,07,24,1.70
2015,02,18,07,25,1.70
2015,02,18,07,26,1.70
2015,02,18,07,27,1.70
2015,02,18,07,28,1.70
2015,02,18,07,29,1.70
2015,02,18,07,30,1.70
2015,02,18,07,31,1.70
2015,02,18,07,32,1.70
2015,02,18,07,33,1.70
2015,02,18,07,34,1.70
2015,02,18,07,35,1.60
2015,02,18,07,36,1.60
2015,02,18,07,37,1.60
2015,02,18,07,38,1.60
2015,02,18,07,39,1.60
2015,02,18,07,40,1.60
2015,02,18,07,41,1.60
2015,02,18,07,42,1.60
2015,02,18,07,43,1.60
2015,02,18,07,44,1.60
2015,02,18,07,45,1.60
2015,02,18,07,46,1.60
2015,02,18,07,47,1.60
2015,02,18,07,48,1.60
2015,02,18,07,49,1.60
2015,02,18,07,50,1.60
2015,02,18,07,51,1.60
2015,02,18,07,52,1.60
2015,02,18,07,53,1.60
2015,02,18,07,54,1.60
2015,02,18,07,55,1.60
2015,02,18,07,56,1.60
2015,02,18,07,57,1.50
2015,02,18,07,58,1.50
2015,02,18,07,59,1.50
2015,02,18,08,00,1.50
2015,02,18,08,01,1.50
2015,02,18,08,02,1.50
2015,02,18,08,03,1.50
2015,02,18,08,04,1.40
2015,02,18,08,05,1.40
2015,02,18,08,06,1.40
2015,02,18,08,07,1.40
2015,02,18,08,08,1.40
2015,02,18,08,09,1.40
2015,02,18,08,10,1.40
2015,02,18,08,11,1.40
2015,02,18,08,12,1.50
2015,02,18,08,13,1.50
2015,02,18,08,14,1.50
2015,02,18,08,15,1.50
2015,02,18,08,16,1.50
2015,02,18,08,17,1.60
2015,02,18,08,18,1.50
2015,02,18,08,19,1.50
2015,02,18,08,20,1.60
2015,02,18,08,21,1.60
2015,02,18,08,22,1.60
2015,02,18,08,23,1.60
2015,02,18,08,24,1.60
2015,02,18,08,25,1.60
2015,02,18,08,26,1.60
2015,02,18,08,27,1.70
2015,02,18,08,28,1.70
2015,02,18,08,29,1.70
2015,02,18,08,30,1.70
2015,02,18,08,31,1.80
2015,02,18,08,32,1.80
2015,02,18,08,33,1.80
2015,02,18,08,34,1.80
2015,02,18,08,35,1.80
2015,02,18,08,36,1.80
2015,02,18,08,37,1.80
2015,02,18,08,38,1.80
2015,02,18,08,39,1.80
2015,02,18,08,40,1.80
2015,02,18,08,41,1.80
2015,02,18,08,42,1.80
2015,02,18,08,43,1.80
2015,02,18,08,44,1.80
2015,02,18,08,45,1.80
2015,02,18,08,46,1.80
2015,02,18,08,47,1.80
2015,02,18,08,48,1.90
2015,02,18,08,49,1.90
2015,02,18,08,50,2.00
2015,02,18,08,51,2.00
2015,02,18,08,52,2.10
2015,02,18,08,53,2.20
2015,02,18,08,54,2.30
2015,02,18,08,55,2.30
2015,02,18,08,56,2.40
2015,02,18,08,57,2.50
2015,02,18,08,58,2.50
2015,02,18,08,59,2.60
2015,02,18,09,00,2.70
2015,02,18,09,01,2.70
2015,02,18,09,02,2.80
2015,02,18,09,03,2.90
2015,02,18,09,04,2.90
2015,02,18,09,05,3.00
2015,02,18,09,06,3.10
2015,02,18,09,07,3.20
2015,02,18,09,08,3.30
2015,02,18,09,09,3.40
2015,02,18,09,10,3.50
2015,02,18,09,11,3.60
2015,02,18,09,12,3.60
2015,02,18,09,13,3.70
2015,02,18,09,14,3.80
2015,02,18,09,15,3.90
2015,02,18,09,16,4.00
2015,02,18,09,17,4.10
2015,02,18,09,18,4.10
2015,02,18,09,19,4.20
2015,02,18,09,20,4.30
2015,02,18,09,21,4.30
2015,02,18,09,22,4.40
2015,02,18,09,23,4.50
2015,02,18,09,24,4.60
2015,02,18,09,25,4.60
2015,02,18,09,26,4.70
2015,02,18,09,27,4.80
2015,02,18,09,28,4.80
2015,02,18,09,29,4.90
2015,02,18,09,30,5.00
2015,02,18,09,31,5.10
2015,02,18,09,32,5.10
2015,02,18,09,33,5.20
2015,02,18,09,34,5.30
2015,02,18,09,35,5.30
2015,02,18,09,36,5.40
2015,02,18,09,37,5.50
2015,02,18,09,38,5.50
2015,02,18,09,39,5.60
2015,02,18,09,40,5.70
2015,02,18,09,41,5.70
2015,02,18,09,42,5.80
2015,02,18,09,43,5.90
2015,02,18,09,44,5.90
2015,02,18,09,45,6.00
2015,02,18,09,46,6.00
2015,02,18,09,47,6.10
2015,02,18,09,48,6.20
2015,02,18,09,49,6.20
2015,02,18,09,50,6.20
2015,02,18,09,51,6.30
2015,02,18,09,52,6.30
2015,02,18,09,53,6.40
2015,02,18,09,54,6.40
2015,02,18,09,55,6.40
2015,02,18,09,56,6.50
2015,02,18,09,57,6.50
2015,02,18,09,58,6.60
2015,02,18,09,59,6.60
2015,02,18,10,00,6.60
2015,02,18,10,01,6.60
2015,02,18,10,02,6.70
2015,02,18,10,03,6.70
2015,02,18,10,04,6.80
2015,02,18,10,05,6.80
2015,02,18,10,06,6.80
2015,02,18,10,07,6.90
2015,02,18,10,08,6.90
2015,02,18,10,09,6.90
2015,02,18,10,10,7.00
2015,02,18,10,11,7.00
2015,02,18,10,12,7.00
2015,02,18,10,13,7.10
2015,02,18,10,14,7.10
2015,02,18,10,15,7.10
2015,02,18,10,16,7.10
2015,02,18,10,17,7.10
2015,02,18,10,18,7.20
2015,02,18,10,19,7.20
2015,02,18,10,20,7.20
2015,02,18,10,21,7.20
2015,02,18,10,22,7.20
2015,02,18,10,23,7.20
2015,02,18,10,24,7.20
2015,02,18,10,25,7.20
2015,02,18,10,26,7.20
2015,02,18,10,27,7.20
2015,02,18,10,28,7.20
2015,02,18,10,29,7.20
2015,02,18,10,30,7.20
2015,02,18,10,31,7.20
2015,02,18,10,32,7.20
2015,02,18,10,33,7.20
2015,02,18,10,34,7.20
2015,02,18,10,35,7.20
2015,02,18,10,36,7.30
2015,02,18,10,37,7.30
2015,02,18,10,38,7.30
2015,02,18,10,39,7.30
2015,02,18,10,40,7.40
2015,02,18,10,41,7.40
2015,02,18,10,42,7.40
2015,02,18,10,43,7.40
2015,02,18,10,44,7.40
2015,02,18,10,45,7.40
2015,02,18,10,46,7.40
2015,02,18,10,47,7.50
2015,02,18,10,48,7.50
2015,02,18,10,49,7.50
2015,02,18,10,50,7.60
2015,02,18,10,51,7.60
2015,02,18,10,52,7.60
2015,02,18,10,53,7.60
2015,02,18,10,54,7.60
2015,02,18,10,55,7.60
2015,02,18,10,56,7.70
2015,02,18,10,57,7.70
2015,02,18,10,58,7.70
2015,02,18,10,59,7.70
2015,02,18,11,00,7.70
2015,02,18,11,01,7.70
2015,02,18,11,02,7.70
2015,02,18,11,03,7.80
2015,02,18,11,04,7.80
2015,02,18,11,05,7.80
2015,02,18,11,06,7.80
2015,02,18,11,07,7.90
2015,02,18,11,08,7.90
2015,02,18,11,09,7.90
2015,02,18,11,10,7.90
2015,02,18,11,11,7.90
2015,02,18,11,12,7.90
2015,02,18,11,13,8.00
2015,02,18,11,14,8.00
2015,02,18,11,15,8.00
2015,02,18,11,16,8.10
2015,02,18,11,17,8.10
2015,02,18,11,18,8.10
2015,02,18,11,19,8.10
2015,02,18,11,20,8.10
2015,02,18,11,21,8.10
2015,02,18,11,22,8.20
2015,02,18,11,23,8.20
2015,02,18,11,24,8.20
2015,02,18,11,25,8.30
2015,02,18,11,26,8.30
2015,02,18,11,27,8.30
2015,02,18,11,28,8.40
2015,02,18,11,29,8.50
2015,02,18,11,30,8.50
2015,02,18,11,31,8.60
2015,02,18,11,32,8.60
2015,02,18,11,33,8.60
2015,02,18,11,34,8.70
2015,02,18,11,35,8.70
2015,02,18,11,36,8.80
2015,02,18,11,37,8.80
2015,02,18,11,38,8.90
2015,02,18,11,39,9.00
2015,02,18,11,40,9.10
2015,02,18,11,41,9.10
2015,02,18,11,42,9.20
2015,02,18,11,43,9.30
2015,02,18,11,44,9.30
2015,02,18,11,45,9.30
2015,02,18,11,46,9.40
2015,02,18,11,47,9.40
2015,02,18,11,48,9.40
2015,02,18,11,49,9.40
2015,02,18,11,50,9.40
2015,02,18,11,51,9.40
2015,02,18,11,52,9.50
2015,02,18,11,53,9.50
2015,02,18,11,54,9.50
2015,02,18,11,55,9.40
2015,02,18,11,56,9.40
2015,02,18,11,57,9.40
2015,02,18,11,58,9.50
2015,02,18,11,59,9.50
2015,02,18,12,00,9.60
2015,02,18,12,01,9.60
2015,02,18,12,02,9.60
2015,02,18,12,03,9.60
2015,02,18,12,04,9.70
2015,02,18,12,05,9.70
2015,02,18,12,06,9.70
2015,02,18,12,07,9.70
2015,02,18,12,08,9.70
2015,02,18,12,09,9.80
2015,02,18,12,10,9.80
2015,02,18,12,11,9.90
2015,02,18,12,12,9.90
2015,02,18,12,13,10.00
2015,02,18,12,14,10.00
2015,02,18,12,15,10.10
2015,02,18,12,16,10.10
2015,02,18,12,17,10.10
2015,02,18,12,18,10.10
2015,02,18,12,19,10.10
2015,02,18,12,20,10.20
2015,02,18,12,21,10.20
2015,02,18,12,22,10.20
2015,02,18,12,23,10.10
2015,02,18,12,24,10.10
2015,02,18,12,25,10.10
2015,02,18,12,26,10.10
2015,02,18,12,27,10.10
2015,02,18,12,28,10.10
2015,02,18,12,29,10.00
2015,02,18,12,30,9.90
2015,02,18,12,31,9.90
2015,02,18,12,32,9.90
2015,02,18,12,33,9.90
2015,02,18,12,34,9.90
2015,02,18,12,35,9.90
2015,02,18,12,36,9.90
2015,02,18,12,37,10.00
2015,02,18,12,38,10.00
2015,02,18,12,39,10.00
2015,02,18,12,40,9.90
2015,02,18,12,41,9.90
2015,02,18,12,42,9.90
2015,02,18,12,43,9.80
2015,02,18,12,44,9.80
2015,02,18,12,45,9.80
2015,02,18,12,46,9.80
2015,02,18,12,47,9.80
2015,02,18,12,48,9.90
2015,02,18,12,49,9.90
2015,02,18,12,50,9.90
2015,02,18,12,51,9.90
2015,02,18,12,52,10.00
2015,02,18,12,53,10.00
2015,02,18,12,54,10.10
2015,02,18,12,55,10.10
2015,02,18,12,56,10.10
2015,02,18,12,57,10.10
2015,02,18,12,58,10.10
2015,02,18,12,59,10.20
2015,02,18,13,00,10.20
2015,02,18,13,01,10.20
2015,02,18,13,02,10.20
2015,02,18,13,03,10.30
2015,02,18,13,04,10.30
2015,02,18,13,05,10.40
2015,02,18,13,06,10.40
2015,02,18,13,07,10.50
2015,02,18,13,08,10.50
2015,02,18,13,09,10.50
2015,02,18,13,10,10.50
2015,02,18,13,11,10.60
2015,02,18,13,12,10.60
2015,02,18,13,13,10.50
2015,02,18,13,14,10.50
2015,02,18,13,15,10.50
2015,02,18,13,16,10.50
2015,02,18,13,17,10.50
2015,02,18,13,18,10.50
2015,02,18,13,19,10.50
2015,02,18,13,20,10.50
2015,02,18,13,21,10.50
2015,02,18,13,22,10.60
2015,02,18,13,23,10.60
2015,02,18,13,24,10.60
2015,02,18,13,25,10.60
2015,02,18,13,26,10.60
2015,02,18,13,27,10.60
2015,02,18,13,28,10.60
2015,02,18,13,29,10.60
2015,02,18,13,30,10.60
2015,02,18,13,31,10.60
2015,02,18,13,32,10.60
2015,02,18,13,33,10.60
2015,02,18,13,34,10.60
2015,02,18,13,35,10.50
2015,02,18,13,36,10.50
2015,02,18,13,37,10.50
2015,02,18,13,38,10.50
2015,02,18,13,39,10.60
2015,02,18,13,40,10.60
2015,02,18,13,41,10.60
2015,02,18,13,42,10.60
2015,02,18,13,43,10.60
2015,02,18,13,44,10.60
2015,02,18,13,45,10.60
2015,02,18,13,46,10.60
2015,02,18,13,47,10.60
2015,02,18,13,48,10.60
2015,02,18,13,49,10.60
2015,02,18,13,50,10.60
2015,02,18,13,51,10.60
2015,02,18,13,52,10.50
2015,02,18,13,53,10.50
2015,02,18,13,54,10.50
2015,02,18,13,55,10.50
2015,02,18,13,56,10.50
2015,02,18,13,57,10.50
2015,02,18,13,58,10.50
2015,02,18,13,59,10.50
2015,02,18,14,00,10.50
2015,02,18,14,01,10.50
2015,02,18,14,02,10.60
2015,02,18,14,03,10.60
2015,02,18,14,04,10.60
2015,02,18,14,05,10.70
2015,02,18,14,06,10.70
2015,02,18,14,07,10.70
2015,02,18,14,08,10.70
2015,02,18,14,09,10.70
2015,02,18,14,10,10.70
2015,02,18,14,11,10.70
2015,02,18,14,12,10.70
2015,02,18,14,13,10.70
2015,02,18,14,14,10.70
2015,02,18,14,15,10.80
2015,02,18,14,16,10.80
2015,02,18,14,17,10.80
2015,02,18,14,18,10.90
2015,02,18,14,19,10.90
2015,02,18,14,20,10.90
2015,02,18,14,21,10.90
2015,02,18,14,22,10.90
2015,02,18,14,23,11.00
2015,02,18,14,24,11.00
2015,02,18,14,25,11.00
2015,02,18,14,26,11.00
2015,02,18,14,27,11.00
2015,02,18,14,28,11.00
2015,02,18,14,29,11.00
2015,02,18,14,30,11.00
2015,02,18,14,31,10.90
2015,02,18,14,32,10.90
2015,02,18,14,33,10.90
2015,02,18,14,34,10.90
2015,02,18,14,35,10.90
2015,02,18,14,36,10.90
2015,02,18,14,37,10.90
2015,02,18,14,38,11.00
2015,02,18,14,39,11.00
2015,02,18,14,40,11.00
2015,02,18,14,41,11.00
2015,02,18,14,42,11.10
2015,02,18,14,43,11.10
2015,02,18,14,44,11.10
2015,02,18,14,45,11.10
2015,02,18,14,46,11.10
2015,02,18,14,47,11.10
2015,02,18,14,48,11.10
2015,02,18,14,49,11.10
2015,02,18,14,50,11.10
2015,02,18,14,51,11.10
2015,02,18,14,52,11.10
2015,02,18,14,53,11.10
2015,02,18,14,54,11.10
2015,02,18,14,55,11.10
2015,02,18,14,56,11.10
2015,02,18,14,57,11.10
2015,02,18,14,58,11.10
2015,02,18,14,59,11.10
2015,02,18,15,00,11.10
2015,02,18,15,01,11.10
2015,02,18,15,02,11.10
2015,02,18,15,03,11.10
2015,02,18,15,04,11.10
2015,02,18,15,05,11.10
2015,02,18,15,06,11.10
2015,02,18,15,07,11.10
2015,02,18,15,08,11.00
2015,02,18,15,09,11.00
2015,02,18,15,10,10.90
2015,02,18,15,11,10.90
2015,02,18,15,12,10.90
2015,02,18,15,13,10.80
2015,02,18,15,14,10.80
2015,02,18,15,15,10.80
2015,02,18,15,16,10.80
2015,02,18,15,17,10.80
2015,02,18,15,18,10.80
2015,02,18,15,19,10.70
2015,02,18,15,20,10.70
2015,02,18,15,21,10.70
2015,02,18,15,22,10.70
2015,02,18,15,23,10.70
2015,02,18,15,24,10.70
2015,02,18,15,25,10.70
2015,02,18,15,26,10.70
2015,02,18,15,27,10.70
2015,02,18,15,28,10.70
2015,02,18,15,29,10.60
2015,02,18,15,30,10.60
2015,02,18,15,31,10.60
2015,02,18,15,32,10.60
2015,02,18,15,33,10.60
2015,02,18,15,34,10.60
2015,02,18,15,35,10.60
2015,02,18,15,36,10.60
2015,02,18,15,37,10.50
2015,02,18,15,38,10.50
2015,02,18,15,39,10.50
2015,02,18,15,40,10.50
2015,02,18,15,41,10.50
2015,02,18,15,42,10.50
2015,02,18,15,43,10.50
2015,02,18,15,44,10.50
2015,02,18,15,45,10.50
2015,02,18,15,46,10.50
2015,02,18,15,47,10.50
2015,02,18,15,48,10.50
2015,02,18,15,49,10.50
2015,02,18,15,50,10.50
2015,02,18,15,51,10.50
2015,02,18,15,52,10.50
2015,02,18,15,53,10.50
2015,02,18,15,54,10.60
2015,02,18,15,55,10.60
2015,02,18,15,56,10.60
2015,02,18,15,57,10.60
2015,02,18,15,58,10.70
2015,02,18,15,59,10.70
2015,02,18,16,00,10.70
2015,02,18,16,01,10.80
2015,02,18,16,02,10.80
2015,02,18,16,03,10.80
2015,02,18,16,04,10.90
2015,02,18,16,05,10.90
2015,02,18,16,06,10.90
2015,02,18,16,07,10.90
2015,02,18,16,08,11.00
2015,02,18,16,09,11.00
2015,02,18,16,10,11.10
2015,02,18,16,11,11.10
2015,02,18,16,12,11.10
2015,02,18,16,13,11.10
2015,02,18,16,14,11.10
2015,02,18,16,15,11.10
2015,02,18,16,16,11.10
2015,02,18,16,17,11.10
2015,02,18,16,18,11.10
2015,02,18,16,19,11.10
2015,02,18,16,20,11.10
2015,02,18,16,21,11.20
2015,02,18,16,22,11.20
2015,02,18,16,23,11.20
2015,02,18,16,24,11.20
2015,02,18,16,25,11.10
2015,02,18,16,26,11.10
2015,02,18,16,27,11.20
2015,02,18,16,28,11.10
2015,02,18,16,29,11.20
2015,02,18,16,30,11.20
2015,02,18,16,31,11.20
2015,02,18,16,32,11.20
2015,02,18,16,33,11.20
2015,02,18,16,34,11.20
2015,02,18,16,35,11.20
2015,02,18,16,36,11.20
2015,02,18,16,37,11.20
2015,02,18,16,38,11.10
2015,02,18,16,39,11.10
2015,02,18,16,40,11.10
2015,02,18,16,41,11.10
2015,02,18,16,42,11.10
2015,02,18,16,43,11.10
2015,02,18,16,44,11.10
2015,02,18,16,45,11.10
2015,02,18,16,46,11.10
2015,02,18,16,47,11.10
2015,02,18,16,48,11.10
2015,02,18,16,49,11.10
2015,02,18,16,50,11.10
2015,02,18,16,51,11.10
2015,02,18,16,52,11.10
2015,02,18,16,53,11.10
2015,02,18,16,54,11.10
2015,02,18,16,55,11.10
2015,02,18,16,56,11.10
2015,02,18,16,57,11.10
2015,02,18,16,58,11.10
2015,02,18,16,59,11.00
2015,02,18,17,00,11.00
2015,02,18,17,01,10.90
2015,02,18,17,02,10.90
2015,02,18,17,03,10.90
2015,02,18,17,04,10.80
2015,02,18,17,05,10.80
2015,02,18,17,06,10.80
2015,02,18,17,07,10.80
2015,02,18,17,08,10.80
2015,02,18,17,09,10.70
2015,02,18,17,10,10.70
2015,02,18,17,11,10.70
2015,02,18,17,12,10.70
2015,02,18,17,13,10.70
2015,02,18,17,14,10.60
2015,02,18,17,15,10.60
2015,02,18,17,16,10.60
2015,02,18,17,17,10.50
2015,02,18,17,18,10.50
2015,02,18,17,19,10.40
2015,02,18,17,20,10.40
2015,02,18,17,21,10.40
2015,02,18,17,22,10.30
2015,02,18,17,23,10.30
2015,02,18,17,24,10.30
2015,02,18,17,25,10.20
2015,02,18,17,26,10.20
2015,02,18,17,27,10.10
2015,02,18,17,28,10.10
2015,02,18,17,29,10.00
2015,02,18,17,30,10.00
2015,02,18,17,31,9.90
2015,02,18,17,32,9.90
2015,02,18,17,33,9.80
2015,02,18,17,34,9.80
2015,02,18,17,35,9.80
2015,02,18,17,36,9.70
2015,02,18,17,37,9.70
2015,02,18,17,38,9.60
2015,02,18,17,39,9.60
2015,02,18,17,40,9.60
2015,02,18,17,41,9.50
2015,02,18,17,42,9.50
2015,02,18,17,43,9.40
2015,02,18,17,44,9.40
2015,02,18,17,45,9.30
2015,02,18,17,46,9.30
2015,02,18,17,47,9.30
2015,02,18,17,48,9.30
2015,02,18,17,49,9.20
2015,02,18,17,50,9.20
2015,02,18,17,51,9.20
2015,02,18,17,52,9.10
2015,02,18,17,53,9.10